Location: Byszew
(52.1813°N, 19.2693°E)
Time: 03:19:43
(UTC+00:00)

Cosmos 1844 - Pass Details

Date: 14 June 2021
Orbit: 823 x 867 km, 70.9° (Epoch: 03 August)

Event Time Altitude Azimuth Distance (km) Brightness Sun altitude
Rises 20:02:41 0° 329° (NNW) 3,371 9.3 -6.8°
Reaches altitude 10° 20:05:10 10° 333° (NNW) 2,435 7.8 -7.0°
Maximum altitude 20:10:40 60° 54° (NE) 948 4.0 -7.5°
Drops below altitude 10° 20:16:11 10° 134° (SE) 2,435 5.5 -8.0°
Enters shadow 20:16:22 - 134° (SE) 2,506 5.5 -8.0°
